Regional Weather Roundup
Issued by NWS

Home | Current Version | Previous Version | Graphics & Text | Print | Product List | Glossary On
Versions: 1 2 3 4 5 6 7 8 9 10 11 12 13 14 15 16 17 18 19 20 21 22 23 24 25 26 27 28 29 30 31 32 33 34 35 36 37 38 39 40 41 42 43 44 45 46 47 48 49 50
493
ASUS43 KMKX 280500
RWRWI

WISCONSIN REGIONAL WEATHER ROUNDUP
NATIONAL WEATHER SERVICE MILWAUKEE/SULLIVAN WI
1200 AM CDT SUN MAY 28 2017

NOTE: "FAIR" INDICATES FEW OR NO CLOUDS BELOW 12,000 FEET WITH NO
SIGNIFICANT WEATHER AND/OR OBSTRUCTIONS TO VISIBILITY.

WIZ001-002-006>008-014>016-023>028-280600-
NORTHWEST WISCONSIN

CITY           SKY/WX    TMP DP  RH WIND       PRES   REMARKS
SUPERIOR ARPT  NOT AVBL
ASHLAND        MOCLDY    60  46  59 SW8       29.77F
HAYWARD        PTCLDY    55  48  77 S5        29.81F
SIREN          PTCLDY    60  49  66 CALM      29.80F
CUMBERLAND     PTCLDY    54  48  82 S3        29.82F
RICE LAKE      MOCLDY    56  50  81 CALM      29.83F
CHETEK         MOCLDY    53  50  90 CALM      29.83F
LADYSMITH      CLEAR     57  49  74 CALM      29.84F
EAU CLAIRE     NOT AVBL
MENOMONIE      MOCLDY    57  48  70 CALM      29.82F
NEW RICHMOND   MOCLDY    59  47  66 S5        29.82F
OSCEOLA        MOCLDY    62  49  62 S7        29.84F
$$

WIZ003>005-009-010-017-018-280600-
NORTH CENTRAL WISCONSIN

CITY           SKY/WX    TMP DP  RH WIND       PRES   REMARKS
MANITOWISH WTR CLEAR     56  50  81 SW5       29.82S
ARBOR VITAE    MOCLDY    59  49  69 W6        29.82S
WOODRUFF       MOCLDY    59  49  69 W6        29.82S
RHINELANDER    PTCLDY    57  49  74 W3        29.83F
EAGLE RIVER    PTCLDY    56  46  69 CALM      29.82S
LAND O LAKES   PTCLDY    53  50  88 CALM      29.83F
PHILLIPS       PTCLDY    57  49  75 SW5       29.81F
TOMAHAWK       PTCLDY    52  49  90 CALM      29.83F
MEDFORD        PTCLDY    56  49  76 SW5       29.84F
MERRILL        CLOUDY    59  51  74 CALM      29.83F
$$

WIZ029-030-035-036-043>047-280600-
CENTRAL WISCONSIN

CITY           SKY/WX    TMP DP  RH WIND       PRES   REMARKS
WAUSAU         CLOUDY    60  54  80 CALM      29.81F
MOSINEE        CLOUDY    59  52  77 W3        29.84F
MARSHFIELD     CLOUDY    58  52  80 W5        29.82F
STEVENS POINT  CLOUDY    56  55  93 CALM      29.83F
WAUPACA        CLOUDY    66  51  59 W5        29.83F
WAUTOMA        CLOUDY    63  52  67 NW3       29.82F
WISC RAPIDS    CLOUDY    59  54  83 CALM      29.83F
CAMP DOUGLAS   NOT AVBL
$$

WIZ011>013-019>022-031-037>040-048>050-280600-
NORTHEAST WISCONSIN

CITY           SKY/WX    TMP DP  RH WIND       PRES   REMARKS
ANTIGO         CLOUDY    58  51  77 W6        29.84S
SHAWANO        CLOUDY    65  51  59 W3        29.82S
OCONTO         MOCLDY    57  55  95 CALM      29.80F
STURGEON BAY   CLOUDY    58  53  84 CALM      29.81F
GREEN BAY      CLOUDY    61  58  90 S3        29.81S
MANITOWOC      NOT AVBL
APPLETON       CLOUDY    61  50  67 W5        29.81F
CLINTONVILLE   CLOUDY    63  50  63 W3        29.81F
OSHKOSH        LGT RAIN  65  55  70 W5        29.82S
$$

WIZ032>034-041-042-053>061-280600-
SOUTHWEST WISCONSIN

CITY           SKY/WX    TMP DP  RH WIND       PRES   REMARKS
LA CROSSE      PTCLDY    57  56  96 CALM      29.82F
SPARTA         CLOUDY    55  55  99 CALM      29.84F
VIROQUA        CLOUDY    58  51  76 CALM      29.83F
BOSCOBEL       CLOUDY    61  59  93 CALM      29.82F
PRAIRIE DU CHI CLOUDY    61  58  89 CALM      29.82F
PLATTEVILLE    CLOUDY    61  61 100 CALM      29.83F
$$

WIZ056-057-062-063-064-067-068-280600-
SOUTH CENTRAL WISCONSIN

CITY           SKY/WX    TMP DP  RH WIND       PRES   REMARKS
REEDSBURG      CLOUDY    61  51  69 CALM      29.81F
BARABOO/DELLS  CLOUDY    61  51  70 CALM      29.82F
LONE ROCK      NOT AVBL
MINERAL POINT  CLOUDY    63  61  94 CALM      29.83F
MADISON        CLOUDY    65  57  75 N3        29.81F
MIDDLETON      CLOUDY    65  59  81 N3        29.83S
WATERTOWN      CLOUDY    63  61  91 SE5       29.82F
MONROE         CLOUDY    64  57  77 CALM      29.83S
JANESVILLE     CLOUDY    68  61  77 CALM      29.81F
$$

WIZ051-052-058>065-066-070>072-280600-
SOUTHEAST WISCONSIN

CITY           SKY/WX    TMP DP  RH WIND       PRES   REMARKS
MILWAUKEE      CLOUDY    65  54  67 CALM      29.82F
WAUKESHA       CLOUDY    61  52  72 CALM      29.85F
MILWAUKEE/TIMM   N/A     63  50  63 S3        29.85F
RACINE         CLOUDY    62  51  67 SE3       29.84F
KENOSHA        CLOUDY    62  52  69 SW3       29.84F
FOND DU LAC    LGT RAIN  66  53  63 NW6       29.82F
SHEBOYGAN      CLOUDY    60  56  86 SW5       29.83S
WEST BEND      CLOUDY    61  55  82 S3        29.84S
JUNEAU         CLOUDY    65  56  71 CALM      29.83F
$$

LSZ147-162-280600-
LAKE SUPERIOR

STATION/POSITION TIME  TEMP    WIND        PRES    WAVE
                       AIR SEA DIR/SP/G            HT/PER
                 (UTC) (F)     (DEG/KT/KT) (MB)    (FT/S)
W MID LAKE BUOY  0350   49 37  200/  8/  8 1008.0F   0
DEVILS ISLAND    0400   65     190/  9/ 11 1007.6F
PORT WING        0440   64     190/  6/  8 1007.8F
SAXON HARBOR     0440   60     190/  4/  7 1008.1F
$$

LMZ867-665-643>646-280600-
LAKE MICHIGAN

STATION/POSITION TIME  TEMP    WIND        PRES    WAVE
                       AIR SEA DIR/SP/G            HT/PER
                 (UTC) (F)     (DEG/KT/KT) (MB)    (FT/S)
CHAMBERS ISLAND  0440   60     170/  4/  8 1008.8F
N MID LAKE BUOY  0350   46 42  160/  8/ 10 1010.3F   1
NORTHPORT PIER   0440   60     180/  4/  8 1008.8F
SISTER BAY       0351   58     160/  7/  8   N/A
ALGOMA LAKESHORE 0401          220/  5/  7   N/A
KEWAUNEE LAKESHO 0430   57      CALM  /  2 1009.1F
SHEBOYGAN LAKESH 0400   62     210/  6/  7 1010.0R
PORT WASHINGTON  0340   56      CALM  /  1 1011.5R
ATWATER BUOY     0309   53     170/  4/  6 1010.7R
MILWAUKEE LAKESH 0430   58      CALM  /  1   N/A
S MID LAKE BUOY  0350   53 50  100/  8/  8 1010.6F   0
KENOSHA   LAKESH 0400   60     210/  2/  3 1010.8
$$

TC  - TEMPERATURE IN CELSIUS
VSB - VISIBILITY IN STATUTE MILES
WCI - WIND CHILL INDEX
HX  - HEAT INDEX





USA.gov is the U.S. government's official web portal to all federal, state and local government web resources and services.